Regional Weather Roundup
Issued by NWS Kansas City/Pleasant Hill, MO

Home | Current Version | Previous Version | Text Only | Print | Product List | Glossary On
Versions: 1 2 3 4 5 6 7 8 9 10 11 12 13 14 15 16 17 18 19 20 21 22 23 24 25 26 27 28 29 30 31 32 33 34 35 36 37 38 39 40 41 42 43 44 45 46 47 48 49 50
000
ASUS43 KEAX 301811
RWREAX

WEATHER ROUNDUP FOR EASTERN KANSAS AND NORTHWEST MISSOURI
NATIONAL WEATHER SERVICE KANSAS CITY/PLEASANT HILL MO
100 PM CDT THU OCT 30 2014

KSZ040-057-103>105-MOZ028-029-037-043-301900-
...KANSAS CITY METROPOLITAN AREA...

CITY           SKY/WX    TMP DP  RH WIND       PRES   REMARKS
K.C. INTL      MOSUNNY   64  40  41 NW17      30.02S
6HR MIN TEMP:  48; 6HR MAX TEMP:  64;

K.C. DOWNTOWN  SUNNY     67  40  37 NW12      30.01S
6HR MIN TEMP:  51; 6HR MAX TEMP:  67;

LEES SUMMIT    SUNNY     65  41  41 NW14      30.01F
6HR MIN TEMP:  49; 6HR MAX TEMP:  65;

OLATHE - IXD   SUNNY     66  41  40 NW21G31   30.03F
6HR MIN TEMP:  46; 6HR MAX TEMP:  66;

OLATHE - OJC   SUNNY     66  40  38 N15       30.01F
6HR MIN TEMP:  47; 6HR MAX TEMP:  66; 6HR PCP:  0.01;

LAWRENCE       LGT RAIN  68  39  34 N23G31    30.03F

$$

MOZ001>008-011>017-020>025-030>033-038>040-044>046-053-054-301900-
...NORTHERN AND CENTRAL MISSOURI...

CITY           SKY/WX    TMP DP  RH WIND       PRES   REMARKS
ST. JOSEPH     SUNNY     65  39  38 N14G29    30.03S
6HR MIN TEMP:  42; 6HR MAX TEMP:  65;

MOSBY          CLEAR     63  41  45 NW9       30.00F
WHITEMAN AFB   MOSUNNY   60  49  66 SW9       30.00R
6HR MIN TEMP:  44; 6HR MAX TEMP:  60; 6HR PCP:  0.02;

CLINTON        MOSUNNY   64  46  52 W9        30.02S
SEDALIA        PTSUNNY   54  46  74 SW9       30.02F
6HR MIN TEMP:  45; 6HR MAX TEMP:  58; 6HR PCP:  0.03;

WARSAW         NOT AVBL
MARSHALL       MOSUNNY   63  48  59 SW8       30.01F
CHILLICOTHE      N/A     61  42  49 NW5       30.00F
6HR MIN TEMP:  47; 6HR MAX TEMP:  61;

MOBERLY        PTSUNNY   55  41  58 S14       30.01F
KIRKSVILLE     SUNNY     58  42  55 VRB3      30.00F
6HR MIN TEMP:  43; 6HR MAX TEMP:  58; 6HR PCP:  0.02;


$$

MOZ041-047>049-056>058-063>065-088>090-097-301900-
...EASTERN AND SOUTHERN MISSOURI...

CITY           SKY/WX    TMP DP  RH WIND       PRES   REMARKS
ST. LOUIS INTL PTSUNNY   58  36  43 S9        30.08F
6HR MIN TEMP:  41; 6HR MAX TEMP:  58; 6HR PCP: TRACE;

SPIRIT OF STL  CLOUDY    57  40  52 S5        30.07F
COLUMBIA       LGT RAIN  48  43  82 S14       30.03F
JEFFERSON CITY LGT RAIN  50  42  74 SE5       30.05F
HANNIBAL       CLOUDY    55  39  54 S12G17    30.01F
ROLLA          LGT RAIN  51  43  74 S8        30.06F
LEBANON        MOSUNNY   55  46  71 S8        30.04F
OSAGE BEACH    CLOUDY    52  45  76 S7        30.03F
SPRINGFIELD    MOSUNNY   60  47  61 S15G21    30.02F
BRANSON        PTSUNNY   63  50  63 E7        30.08F
JOPLIN         SUNNY     66  45  46 W18G28    30.05S
WEST PLAINS    CLOUDY    59  36  42 S3        30.11F

$$

IAZ060-094-KSZ022-034>040-054-083-096-NEZ052-066-093-301900-
...KANSAS...SOUTHEAST NEBRASKA AND IOWA...

CITY           SKY/WX    TMP DP  RH WIND       PRES   REMARKS
TOPEKA         SUNNY     68  40  35 NW23G32   30.06S
6HR MIN TEMP:  49; 6HR MAX TEMP:  69;

MANHATTAN      SUNNY     69  37  30 N16G25    30.10F
EMPORIA        SUNNY     69  36  29 N20G30    30.08F
CHANUTE        SUNNY     70  41  34 NW15G24   30.06S
WICHITA          N/A     70  36  28 N18G28    30.15S
OMAHA          MOSUNNY   60  41  49 N25       30.07S
LINCOLN        SUNNY     62  39  42 NW21G28   30.12S
FALLS CITY     SUNNY     64  40  41 NW21G29   30.05S
LAMONI         SUNNY     59  41  51 N5        30.00F
DES MOINES     MOSUNNY   59  37  44 VRB3      30.01F

$$




USA.gov is the U.S. government's official web portal to all federal, state and local government web resources and services.